Greenville, SC

2:34 AM EDT on April 30, 2017 (GMT -0400)
Donaldson Center

Weather History for KGYH - October, 2013

Change the Weather History Date:

Tuesday, October 1, 2013

  Actual Average (KGMU) Record (KGMU)
Temperature  
Mean Temperature 66 °F -  
Max Temperature 80 °F 73 °F 87 °F (1998)
Min Temperature 53 °F 55 °F 35 °F (1998)
Cooling Degree Days 2    
Growing Degree Days 16 (Base 50)    
Moisture  
Dew Point 58 °F    
Average Humidity 85    
Maximum Humidity 100    
Minimum Humidity 42    
Precipitation  
Precipitation 0.00 in - - ()
Sea Level Pressure  
Sea Level Pressure 30.12 in    
Wind  
Wind Speed 2 mph (WNW)    
Max Wind Speed 7 mph    
Max Gust Speed -    
Visibility 10 miles    
Events      
Averages and records for this station are not official NWS values.
T = Trace of Precipitation, MM = Missing Value Source: NWS Daily Summary

Daily Weather History Graph

Daily Weather History Graph

Search for Another Location

Airport or City:

Trip Planner

Search our weather history database for the weather conditions in past years. The results will help you decide how hot, cold, wet, or windy it might be!

Date:

Astronomy

Oct. 01, 2013 Rise Set
Actual Time 7:24 AM EDT 7:13 PM EDT
Civil Twilight 6:59 AM EDT 7:38 PM EDT
Nautical Twilight 6:29 AM EDT 8:07 PM EDT
Astronomical Twilight 6:00 AM EDT 8:36 PM EDT
Moon 4:04 AM EDT (10/1) 5:10 PM EDT (10/1)
Length of Visible Light 12h 39m
Length of Day
11h 48m
Waning Crescent, 12% of the Moon is Illuminated
Oct 1
Waning Crescent
Oct 4
New
Oct 11
First Quarter
Oct 18
Full
Oct 26
Last Quarter

Hourly Weather History & Observations

Time (EDT) Temp. Heat Index Dew Point Humidity Pressure Visibility Wind Dir Wind Speed Gust Speed Precip Events Conditions
12:15 AM 62.6 °F - 57.2 °F 82% 30.11 in 10.0 mi Calm Calm - N/A   Clear
12:35 AM 60.8 °F - 57.2 °F 88% 30.10 in 10.0 mi Calm Calm - N/A   Clear
12:55 AM 60.8 °F - 59.0 °F 94% 30.10 in 10.0 mi Calm Calm - N/A   Clear
1:15 AM 60.8 °F - 59.0 °F 94% 30.10 in 10.0 mi WNW 3.5 mph - N/A   Clear
1:35 AM 59.0 °F - 59.0 °F 100% 30.09 in 10.0 mi Calm Calm - N/A   Clear
1:55 AM 59.0 °F - 59.0 °F 100% 30.10 in 10.0 mi NW 3.5 mph - N/A   Clear
2:15 AM 59.0 °F - 59.0 °F 100% 30.10 in 10.0 mi WNW 4.6 mph - N/A   Clear
2:35 AM 59.0 °F - 59.0 °F 100% 30.09 in 10.0 mi WNW 3.5 mph - N/A   Clear
2:55 AM 59.0 °F - 59.0 °F 100% 30.09 in 10.0 mi NW 4.6 mph - N/A   Clear
3:15 AM 57.2 °F - 57.2 °F 100% 30.10 in 10.0 mi Calm Calm - N/A   Clear
3:35 AM 59.0 °F - 59.0 °F 100% 30.10 in 10.0 mi NW 3.5 mph - N/A   Clear
3:55 AM 59.0 °F - 59.0 °F 100% 30.10 in 10.0 mi NW 4.6 mph - N/A   Clear
4:15 AM 59.0 °F - 59.0 °F 100% 30.10 in 10.0 mi NNW 3.5 mph - N/A   Clear
4:35 AM 57.2 °F - 57.2 °F 100% 30.10 in 10.0 mi Calm Calm - N/A   Clear
4:55 AM 55.4 °F - 55.4 °F 100% 30.11 in 10.0 mi Calm Calm - N/A   Clear
5:15 AM 57.2 °F - 57.2 °F 100% 30.11 in 10.0 mi NNW 3.5 mph - N/A   Clear
5:35 AM 53.6 °F - 53.6 °F 100% 30.11 in 7.0 mi WNW 3.5 mph - N/A   Clear
5:55 AM 55.4 °F - 55.4 °F 100% 30.11 in 10.0 mi NW 3.5 mph - N/A   Clear
6:15 AM 55.4 °F - 55.4 °F 100% 30.12 in 10.0 mi Calm Calm - N/A   Clear
6:35 AM 55.4 °F - 55.4 °F 100% 30.12 in 10.0 mi Calm Calm - N/A   Clear
6:47 AM 55.4 °F - 55.4 °F 100% 30.13 in 10.0 mi Calm Calm - N/A   Clear
7:47 AM 55.4 °F - 55.4 °F 100% 30.14 in 10.0 mi Calm Calm - N/A   Clear
8:47 AM 62.6 °F - 62.6 °F 100% 30.16 in 10.0 mi Calm Calm - N/A   Clear
9:47 AM 68.0 °F - 62.6 °F 83% 30.17 in 10.0 mi Calm Calm - N/A   Clear
11:47 AM 75.2 °F - 60.8 °F 61% 30.17 in 10.0 mi WNW 3.5 mph - N/A   Clear
12:47 PM 78.8 °F - 59.0 °F 51% 30.16 in 10.0 mi WSW 6.9 mph - N/A   Clear
1:47 PM 78.8 °F - 55.4 °F 44% 30.13 in 10.0 mi Calm Calm - N/A   Clear
2:47 PM 78.8 °F - 55.4 °F 44% 30.11 in 10.0 mi Calm Calm - N/A   Clear
3:47 PM 80.6 °F 80.5 °F 55.4 °F 42% 30.09 in 10.0 mi South 5.8 mph - N/A   Clear
4:47 PM 80.6 °F 80.5 °F 55.4 °F 42% 30.08 in 10.0 mi Calm Calm - N/A   Clear
5:47 PM 78.8 °F - 57.2 °F 47% 30.08 in 10.0 mi SW 5.8 mph - N/A   Clear
6:47 PM 73.4 °F - 60.8 °F 65% 30.09 in 10.0 mi WSW 4.6 mph - N/A   Clear
7:47 PM 69.8 °F - 60.8 °F 73% 30.11 in 10.0 mi Calm Calm - N/A   Clear
8:47 PM 68.0 °F - 60.8 °F 78% 30.12 in 10.0 mi Calm Calm - N/A   Clear
9:15 PM 68.0 °F - 59.0 °F 73% 30.12 in 10.0 mi WSW 3.5 mph - N/A   Clear
9:35 PM 64.4 °F - 59.0 °F 83% 30.13 in 10.0 mi Calm Calm - N/A   Clear
9:55 PM 64.4 °F - 59.0 °F 83% 30.13 in 10.0 mi Calm Calm - N/A   Scattered Clouds
10:15 PM 66.2 °F - 59.0 °F 78% 30.13 in 10.0 mi Calm Calm - N/A   Scattered Clouds
10:35 PM 62.6 °F - 60.8 °F 94% 30.14 in 10.0 mi Calm Calm - N/A   Clear
10:55 PM 62.6 °F - 60.8 °F 94% 30.14 in 10.0 mi Calm Calm - N/A   Clear
11:15 PM 60.8 °F - 60.8 °F 100% 30.14 in 10.0 mi Calm Calm - N/A   Clear
11:35 PM 66.2 °F - 60.8 °F 83% 30.14 in 10.0 mi North 3.5 mph - N/A   Clear
11:55 PM 62.6 °F - 59.0 °F 88% 30.14 in 10.0 mi Calm Calm - N/A   Clear